DW8780 Weather Reports


time (UTC)temp
C
wind
direction
speed
KPH
gust
KPH
rain 1hr
cm
rain 24hr
cm
rain mn
cm
humidity
%
barometer
mb
20260504141002 19 349 6.4 22.5 0.00 0.00 0.00 47 1015.4
20260504140503 19 336 6.4 19.3 0.00 0.00 0.00 50 1015.6
20260504130503 16 339 3.2 11.3 0.00 0.00 0.00 69 1016.5
20260504110503 11 15 3.2 9.7 0.00 0.00 0.00 81 1017.3
20260504100502 10 359 3.2 11.3 0.00 0.00 0.00 82 1016.9
20260504081503 10 357 4.8 11.3 0.00 0.00 0.00 82 1017.5
20260504081003 10 2 4.8 9.7 0.00 0.00 0.00 82 1017.5
20260504080503 10 10 3.2 9.7 0.00 0.00 0.00 82 1017.5
20260504050504 7 26 1.6 6.4 0.00 0.00 0.00 73 1017.6
20260504050003 7 28 3.2 6.4 0.00 0.00 0.00 73 1017.6
20260504045503 7 16 3.2 6.4 0.00 0.00 0.00 73 1017.5
20260504045002 7 13 1.6 6.4 0.00 0.00 0.00 73 1017.6
20260504044503 7 14 1.6 4.8 0.00 0.00 0.00 73 1017.5
20260504043503 7 34 1.6 4.8 0.00 0.00 0.00 72 1017.4
20260504043004 7 11 1.6 4.8 0.00 0.00 0.00 72 1017.4
20260504042503 6 3 1.6 4.8 0.00 0.00 0.00 72 1017.3
20260504042003 7 353 1.6 4.8 0.00 0.00 0.00 72 1017.3
20260504041504 7 356 0.0 3.2 0.00 0.00 0.00 72 1017.3
20260504040504 7 70 0.0 3.2 0.00 0.00 0.00 70 1017.1
20260504040002 7 52 1.6 3.2 0.00 0.00 0.00 70 1017.1
20260504035503 7 12 1.6 3.2 0.00 0.00 0.00 69 1016.9
20260504034503 7 5 1.6 3.2 0.00 0.00 0.00 69 1017.0
20260504034003 7 3 1.6 4.8 0.00 0.00 0.00 68 1017.0
20260504033502 7 11 1.6 4.8 0.00 0.00 0.00 68 1016.8
20260504033003 7 13 1.6 4.8 0.00 0.00 0.00 68 1016.8
20260504032502 7 11 1.6 3.2 0.00 0.00 0.00 67 1016.9
20260504032003 7 8 0.0 3.2 0.00 0.00 0.00 68 1016.8
20260504031504 7 68 0.0 3.2 0.00 0.00 0.00 67 1016.8
20260504031002 8 63 1.6 3.2 0.00 0.00 0.00 66 1016.8
20260504030503 8 3 1.6 3.2 0.00 0.00 0.00 65 1016.7
20260504030002 8 1 1.6 3.2 0.00 0.00 0.00 64 1016.8
20260504025503 8 3 1.6 3.2 0.00 0.00 0.00 64 1016.8
20260504025002 8 4 1.6 3.2 0.00 0.00 0.00 64 1016.7
20260504024503 8 2 1.6 3.2 0.00 0.00 0.00 64 1016.8
20260504024002 8 5 1.6 3.2 0.00 0.00 0.00 62 1016.8
20260504023503 8 6 1.6 3.2 0.00 0.00 0.00 61 1016.8
20260504022504 8 4 1.6 4.8 0.00 0.00 0.00 59 1016.7
20260504022002 8 4 1.6 4.8 0.00 0.00 0.00 60 1016.7
20260504021502 8 11 1.6 6.4 0.00 0.00 0.00 59 1016.8
20260504021003 8 6 1.6 6.4 0.00 0.00 0.00 60 1016.7
20260504020503 8 1 1.6 4.8 0.00 0.00 0.00 60 1016.8
20260504015003 9 6 1.6 4.8 0.00 0.00 0.00 60 1016.6
20260504014502 9 13 1.6 3.2 0.00 0.00 0.00 59 1016.6
20260504014003 9 24 1.6 3.2 0.00 0.00 0.00 58 1016.6
20260504013502 10 6 1.6 4.8 0.00 0.00 0.00 59 1016.5
20260504013003 10 4 1.6 4.8 0.00 0.00 0.00 57 1016.5
20260504012003 10 4 0.0 3.2 0.00 0.00 0.00 55 1016.3
20260504011503 10 4 1.6 3.2 0.00 0.00 0.00 55 1016.3
20260504011003 10 10 1.6 3.2 0.00 0.00 0.00 54 1016.3
20260504010502 10 11 1.6 4.8 0.00 0.00 0.00 53 1016.3
20260504004503 11 6 0.0 3.2 0.00 0.00 0.00 52 1016.0
20260504003003 11 298 0.0 3.2 0.00 0.00 0.00 48 1015.9
20260504002502 12 318 0.0 3.2 0.00 0.00 0.00 47 1015.8
20260504002003 12 342 0.0 3.2 0.00 0.00 0.00 46 1015.7
20260504001503 12 350 0.0 3.2 0.00 0.00 0.00 47 1015.6
20260504001003 13 352 0.0 3.2 0.00 0.00 0.00 45 1015.5
20260504000504 13 337 0.0 3.2 0.00 0.00 0.00 43 1015.4
20260504000003 13 299 0.0 3.2 0.00 0.00 0.00 42 1015.4
20260503235503 13 290 0.0 3.2 0.00 0.00 0.00 41 1015.4
20260503235002 13 289 0.0 3.2 0.00 0.00 0.00 42 1015.3
20260503234504 14 297 0.0 3.2 0.00 0.00 0.00 39 1015.2
20260503234003 14 306 1.6 6.4 0.00 0.00 0.00 39 1015.3
20260503233502 14 309 1.6 6.4 0.00 0.00 0.00 38 1015.3
20260503233002 15 296 1.6 4.8 0.00 0.00 0.00 37 1015.3
20260503232503 15 289 1.6 6.4 0.00 0.00 0.00 36 1015.3
20260503232003 15 303 3.2 11.3 0.00 0.00 0.00 35 1015.3
20260503231502 15 312 3.2 11.3 0.00 0.00 0.00 36 1015.3
20260503231004 15 303 3.2 11.3 0.00 0.00 0.00 36 1015.3
20260503230503 15 306 4.8 14.5 0.00 0.00 0.00 35 1015.3
20260503230002 15 308 4.8 17.7 0.00 0.00 0.00 34 1015.1
20260503225503 15 312 4.8 17.7 0.00 0.00 0.00 34 1015.1
20260503224503 15 318 6.4 16.1 0.00 0.00 0.00 35 1015.1
20260503224003 15 318 6.4 19.3 0.00 0.00 0.00 34 1015.1
20260503223003 16 305 4.8 14.5 0.00 0.00 0.00 36 1015.1
20260503222503 16 303 4.8 16.1 0.00 0.00 0.00 35 1015.1
20260503222002 16 305 6.4 16.1 0.00 0.00 0.00 33 1015.2
20260503221503 16 307 6.4 12.9 0.00 0.00 0.00 34 1015.2
20260503221002 16 316 6.4 12.9 0.00 0.00 0.00 33 1015.1
20260503220503 16 312 6.4 14.5 0.00 0.00 0.00 34 1015.1
20260503220003 16 313 6.4 14.5 0.00 0.00 0.00 33 1015.2
20260503215503 16 325 6.4 16.1 0.00 0.00 0.00 34 1015.2
20260503215003 16 329 6.4 24.1 0.00 0.00 0.00 35 1015.2
20260503214502 16 315 6.4 24.1 0.00 0.00 0.00 34 1015.1
20260503213502 16 316 6.4 12.9 0.00 0.00 0.00 35 1015.1
20260503213003 16 320 6.4 19.3 0.00 0.00 0.00 35 1015.2
20260503212503 15 322 8.0 19.3 0.00 0.00 0.00 35 1015.1
20260503212003 16 326 8.0 37.0 0.00 0.00 0.00 34 1015.2
20260503211503 16 332 9.7 37.0 0.00 0.00 0.00 33 1015.1
20260503211002 16 330 8.0 19.3 0.00 0.00 0.00 33 1015.1
20260503210503 16 320 6.4 19.3 0.00 0.00 0.00 34 1015.1
20260503210003 16 329 8.0 20.9 0.00 0.00 0.00 33 1015.1
20260503205504 16 328 8.0 20.9 0.00 0.00 0.00 33 1015.1
20260503205002 16 329 8.0 19.3 0.00 0.00 0.00 33 1015.1
20260503204503 16 334 6.4 19.3 0.00 0.00 0.00 34 1015.0
20260503204003 15 331 6.4 17.7 0.00 0.00 0.00 35 1014.9
20260503203502 15 327 6.4 17.7 0.00 0.00 0.00 33 1015.1
20260503203003 15 322 6.4 16.1 0.00 0.00 0.00 36 1015.0
20260503202503 15 324 8.0 33.8 0.00 0.00 0.00 35 1015.1
20260503202002 15 330 8.0 33.8 0.00 0.00 0.00 33 1015.2
20260503201504 15 344 9.7 38.6 0.00 0.00 0.00 34 1015.3
20260503201002 15 344 9.7 38.6 0.00 0.00 0.00 33 1015.4
20260503200503 15 332 8.0 20.9 0.00 0.00 0.00 33 1015.5
20260503195503 15 327 6.4 17.7 0.00 0.00 0.00 33 1015.5
20260503194503 15 347 8.0 29.0 0.00 0.00 0.00 35 1015.6
20260503194006 15 343 9.7 30.6 0.00 0.00 0.00 34 1015.5
20260503193502 15 336 8.0 30.6 0.00 0.00 0.00 33 1015.6
20260503193003 15 331 6.4 25.7 0.00 0.00 0.00 35 1015.6
20260503192502 15 331 6.4 17.7 0.00 0.00 0.00 34 1015.7
20260503192003 15 328 6.4 17.7 0.00 0.00 0.00 35 1015.6
20260503191503 14 329 6.4 17.7 0.00 0.00 0.00 36 1015.6
20260503190504 15 332 6.4 24.1 0.00 0.00 0.00 33 1015.8
20260503185503 14 330 6.4 19.3 0.00 0.00 0.00 35 1015.9
20260503184503 14 335 8.0 22.5 0.00 0.00 0.00 34 1016.1
20260503184003 14 322 8.0 17.7 0.00 0.00 0.00 35 1016.1
20260503183503 14 334 8.0 22.5 0.00 0.00 0.00 32 1016.1
20260503183002 15 339 6.4 22.5 0.00 0.00 0.00 33 1016.1
20260503182503 14 323 4.8 14.5 0.00 0.00 0.00 35 1016.0
20260503181004 14 353 12.9 38.6 0.00 0.00 0.00 33 1016.2
20260503180503 14 338 9.7 27.4 0.00 0.00 0.00 33 1016.1
20260503180003 13 320 8.0 27.4 0.00 0.00 0.00 36 1016.3
20260503175502 13 317 8.0 27.4 0.00 0.00 0.00 33 1016.3
20260503175003 13 324 8.0 20.9 0.00 0.00 0.00 35 1016.4
20260503174503 13 329 8.0 20.9 0.00 0.00 0.00 35 1016.4
20260503174003 13 327 9.7 25.7 0.00 0.00 0.00 35 1016.3
20260503173503 13 326 8.0 25.7 0.00 0.00 0.00 35 1016.4
20260503173003 14 346 11.3 29.0 0.00 0.00 0.00 36 1016.4
20260503172002 13 342 11.3 25.7 0.00 0.00 0.00 35 1016.4
20260503171502 13 339 11.3 29.0 0.00 0.00 0.00 35 1016.4
20260503151003 12 321 6.4 19.3 0.00 0.00 0.00 42 1016.6